www.pogodaiklimat.ru

Погода и климат >> Архив погоды >> Аргентина >> Ла-Риоха


ПОГОДА в Ла-Риохе

  • Прогноз погоды в Ла-Риохе
  • Монитор погоды в Ла-Риохе

АРХИВ ПОГОДЫ в Ла-Риохе

Время (UTC), дата Ветер
(напр.,м/с)
 
Видим.   Явления Облачность Т
(С)
Тd
(С)
f
(%)
Тe
(С)
Тes
(С)
Комфортность P
(гПа)
Po
(гПа)
Тmin
(С)
Tmax
(С)
R
(мм)
R24
(мм)
S
(см)
15 20.05 Ю 3 20 км 8/4 1500 м
[Sc As trans]
+17.0 +7.8 55 +17 +19 1012.9 963.0
18 20.05 Ю 3 20 км 6/4 1500 м
[Sc As trans]
+20.0 +9.9 52 +22 +25 комфорт 1010.1 960.6
21 20.05 Ю 3 20 км 6/6 1500 м
[Sc]
+19.0 +9.9 56 +20 +20 1010.6 961.3
00 21.05 Ю 2 8000 м дым 4/4 1500 м
[Sc]
+15.6 +12.4 81 +16 +16 1013.9 964.2 +13.5 +20.5
03 21.05 З 1 20 км 9/9 1500 м
[Sc]
+12.2 +10.1 87 +12 +12 1016.4 966.5
06 21.05 З 4 20 км 9/9 1500 м
[Sc]
+12.0 +8.9 81 +10 +10 1018.1 968.4
09 21.05 ЮЗ 3 20 км 10/10 750 м
[St]
+10.5 +5.9 73 +9 +9 1020.2 970.2
12 21.05 Ю 1 20 км в посл. час морось 10/10 450 м
[St]
+8.2 +3.7 73 +8 +8 1022.4 971.4 +7.9 +15.6 0.0
15 21.05 З 3 5000 м слаб. морось 10/10 210 м
[St]
+7.8 +5.7 87 +5 +5 1024.5 973.2
18 21.05 ЮЗ 3 15 км {морось} 10/5 900 м
[Sc Ac As]
+9.0 +5.8 80 +7 +8 1024.2 973.0 0.0
21 21.05 ЮЗ 1 15 км осадки на расстоянии 10/6 900 м
[Sc Ac As]
+9.4 +4.6 72 +9 +9 1024.2 972.9
00 22.05 штиль 0 15 км 10/8 750 м
[Sc Ac As]
+8.1 +6.6 90 +7 +7 1026.6 974.8 +7.2 +10.0
03 22.05 штиль 0 15 км 10/8 750 м
[Sc Ac As]
+7.8 +5.4 85 +7 +7 1027.8 975.8
06 22.05 штиль 0 15 км 10/8 750 м
[Sc Ac As]
+7.3 +4.9 85 +6 +6 1027.2 975.4
09 22.05 ЮЗ 1 20 км 10/1 750 м
[Sc Ac As]
+7.1 +6.2 94 +6 +6 1025.9 974.5
12 22.05 штиль 0 20 км 10/10 1350 м
[Cu Sc]
+7.3 +6.2 93 +6 +6 1027.2 975.6 +6.8 +8.3 0.0
15 22.05 З 1 20 км 9/6 1350 м
[Frnb]
+9.7 +4.7 71 +9 +12 1027.2 975.8
18 22.05 штиль 0 20 км 9/9 1350 м
[Cu Sc]
+11.6 +4.8 63 +11 +12 1024.9 973.4
21 22.05 СЗ 3 20 км 6/6 1350 м
[Cu Sc]
+11.8 +4.1 59 +11 +11 1024.4 973.0
00 23.05 СВ 2 20 км 5/5 1350 м
[Sc]
+5.3 +2.7 83 +3 +3 1026.2 974.1 +4.7 +14.0
03 23.05 СЗ 3 20 км ясно +3.2 +2.2 93 -1 -1 1026.3 974.2
06 23.05 ЮЗ 1 20 км ясно +2.6 +1.6 93 +1 +1 1025.0 973.0
09 23.05 ЮЗ 3 20 км ясно +0.5 0.0 96 -4 -4 1024.6 972.6
12 23.05 З 3 20 км ясно +0.4 +0.1 98 -4 -4 1025.5 973.1 0.0 +5.8
15 23.05 ЮЗ 1 20 км ясно +13.2 +3.5 52 +14 +22 1023.8 972.5
18 23.05 штиль 0 20 км ясно +19.1 +3.5 36 +19 +29 1020.4 969.4
21 23.05 С 3 20 км ясно +18.8 +2.4 33 +19 +20 1019.0 701.6
00 24.05 штиль 0 20 км ясно +9.6 +3.7 67 +9 +9 1020.6 968.5 +0.4 +21.0
03 24.05 ЮЗ 3 20 км ясно +6.0 +2.7 79 +3 +3 1019.7 968.5
06 24.05 З 3 20 км ясно +3.4 +1.4 87 -0 -0 1018.5 967.7
09 24.05 штиль 0 20 км ясно +3.2 +1.2 87 +2 +2 1017.0 966.2
12 24.05 З 1 20 км 4/0
[Ci sp]
+3.4 +0.9 84 +2 +2 1017.3 965.6 +0.9 +8.6
15 24.05 ЮВ 1 20 км 8/0
[Ac As Ci sp]
+11.4 +6.5 72 +11 +16 1016.5 965.3
18 24.05 штиль 0 20 км 8/0
[Ac As Ci sp]
+21.1 +2.9 30 +21 +28 комфорт 1013.1 962.6
21 24.05 штиль 0 20 км 6/0
[Ci sp]
+20.6 +6.3 39 +21 +22 комфорт 1011.7 961.3
00 25.05 ЮЗ 2 20 км 6/0
[Ac As Ci sp]
+10.5 +5.7 72 +10 +10 1013.3 962.0 +3.3 +21.8
03 25.05 З 1 20 км ясно +7.2 +4.3 82 +6 +6 1013.0 962.1
06 25.05 штиль 0 20 км 9/0
[Cs]
+6.6 +4.6 87 +6 +6 1011.0 961.0
09 25.05 ЮЗ 3 20 км 10/0
[Cs]
+9.7 +5.2 74 +8 +8 1009.8 960.1
12 25.05 З 1 20 км 9/0
[Cs]
+4.6 +3.7 94 +3 +3 1011.9 960.8 +4.4 +10.5
15 25.05 Ю 3 20 км 9/0
[Cs]
+12.0 +6.0 67 +11 +16 1011.0 960.2
18 25.05 штиль 0 15 км 9/3 1500 м
[Sc Cs]
+14.4 +9.9 74 +14 +20 1007.9 957.4
21 25.05 штиль 0 20 км 9/3 1500 м
[Sc Cs]
+15.1 +7.5 60 +15 +15 1007.2 957.0
00 26.05 ЮЗ 3 20 км 9/3 1500 м
[Sc Ac As Cs]
+8.3 +6.0 85 +6 +6 1009.2 958.0 +4.5 +16.0
03 26.05 ЮЗ 1 20 км 9/0
[Cs]
+7.1 +6.0 93 +6 +6 1008.7 958.1
06 26.05 З 1 20 км 4/0
[Cs]
+6.0 +5.3 95 +5 +5 1007.5 957.0
09 26.05 штиль 0 20 км ясно +4.5 +4.0 97 +3 +3 1007.9 957.4
12 26.05 штиль 0 20 км 3/0
[Cs]
+4.0 +1.5 84 +3 +4 1010.6 959.3 +3.1 +8.3
15 26.05 В 3 20 км 6/0
[Cs]
+15.1 +9.1 67 +14 +20 1010.9 960.4
18 26.05 СВ 3 20 км 3/0
[Ci]
+20.0 +9.0 49 +22 +27 комфорт 1008.3 958.2
21 26.05 Ю 1 20 км 5/0
[Cs]
+20.6 +7.4 42 +23 +23 комфорт 1008.8 958.6
00 27.05 З 1 20 км 5/0
[Cs]
+13.6 +9.0 74 +14 +14 1012.7 961.7 +3.9 +21.8
03 27.05 ЮЗ 1 20 км 5/0
[Cs]
+13.2 +8.8 75 +13 +13 1013.3 963.2
06 27.05 З 3 20 км 8/0
[Cs]
+12.5 +7.8 73 +11 +11 1012.7 963.0
09 27.05 штиль 0 20 км 9/9 1500 м
[Sc]
+13.5 +9.1 75 +13 +13 1011.2 961.7
12 27.05 З 2 20 км 9/6 1500 м
[Sc Cs]
+11.8 +8.3 79 +11 +11 1012.7 962.7 +10.9 +13.8

 

Местоположение метеостанции Ла-Риоха (Аргентина): широта -29.38 долгота -66.81 высота над уровнем моря 429 м.

В архиве по умолчанию представлена погода в Ла-Риохе за последнюю неделю. Архивные данные за месяц целиком и за предыдущие месяцы, начиная с января 2011 года, Вы можете получить, выбрав интересующий диапазон дат из раскрывающегося списка и нажав кнопку "Ввод!".


*Определитесь, кто Вы:
робот инопланетянин человек

Внимание! Время в таблицах - всемирное. Для получения местного времени необходимо прибавить поправку, которая равна -3 ч.

Смотрите также архив погоды в соседних городах и на ближайших метеорологических станциях:

Погода в Чамикале (Аргентина) (120 км)
Погода в Сан-Фернандо-дель-Валье-де-Катамарке (Аргентина) (134 км)
Погода в Сан-Хуане (Аргентина) (272 км)
Погода в Сантьяго-дель-Эстеро (Аргентина) (304 км)
Погода в Вилла де Мария дель Рио Секо (Аргентина) (308 км)
Погода в Вилла Долорес (Аргентина) (328 км)
Погода в Сан-Мигель-де-Тукумане (Аргентина) (328 км)
Погода в Кордове (Аргентина) (329 км)
Погода в Пиларе (Аргентина) (378 км)
Погода в Викунье (Чили) (383 км)

Пояснения к столбцам:

Ветер - указаны скорость ветра в м/с - средняя за 10 мин, порывы в срок и между сроками (в фигурных скобках) и направление, откуда дует ветер: С - северный, СВ - северо-восточный, В - восточный, ЮВ - юго-восточный, Ю - южный, ЮЗ - юго-западный, З - западный, СЗ - северо-западный.
Видимость - горизонтальная дальность видимости в метрах или километрах. При видимости от 1 до 10 км при отсутствии осадков обычно наблюдается дымка, при ухудшении видимости до 1 км и менее - туман. В сухую погоду видимость может ухудшаться дымом, пылью или мглою.
Явления - указаны атмосферные явления, наблюдавшиеся в срок или в последний час перед сроком; фигурными скобками обозначены явления, наблюдавшиеся между сроками (за 1-3 часа до срока); квадратными скобками обозначены град или гололедные отложения с указанием их диаметра в мм.
Облачность - указаны через наклонную черту общая и нижняя облачность в баллах и высота нижней границы облаков в метрах; квадратными скобками обозначены формы облаков: Ci - перистые, Cs - перисто-слоистые, Cc - перисто-кучевые, Ac - высококучевые, As - высокослоистые, Sc - слоисто-кучевые, Ns - слоисто-дождевые, Cu - кучевые, Cb - кучево-дождевые. Подробнее классификацию облаков см. в Атласе облаков (PDF).
T - Температура воздуха - температура, измеренная на высоте 2 м над землей.
Td - Температура точки росы - температура, при понижении до которой содержащийся в воздухе водяной пар достигнет насыщения.
f - Относительная влажность воздуха - влажноcть воздуха, измеренная на высоте 2 м над землей.
Te - Эффективная температура - температура, которую ощущает одетый по сезону человек в тени. Характеристика душности погоды. При расчете учитывается влияние влажности воздуха и скорости ветра на теплоощущения человека.
Tes - Эффективная температура на солнце - температура, которую ощущает человек, с поправкой на солнечный нагрев. Характеристика знойности погоды. Зависит от высоты солнца над горизонтом, облачности и скорости ветра. Ночью, в пасмурную погоду, а также при ветре 12 м/с и более поправка равна нулю.
P - Атмосферное давление - приведенное к уровню моря атмосферное давление.
Po - Атмосферное давление - измеренное на уровне метеостанции атмосферное давление.
Tmin - Минимальная температура - минимум температуры воздуха на высоте 2 м над землей.
Tmax - Максимальная температура - максимум температуры воздуха на высоте 2 м над землей.
R - Количество осадков - Количество выпавших осадков за период времени, мм. При наведении курсора мыши на число - период времени, за который выпало указанное количество осадков.
R24 - Количество осадков - Количество выпавших осадков за 24 часа, мм.
S - Снежный покров - Высота снежного покрова, см. При наведении курсора мыши на число - состояние снежного покрова и степень покрытия местности в баллах.